Location: ????????
(55.8351°N, 38.7040°E)
Time: 23:02:24
(UTC+00:00)

SL-16 R/B - Pass Details

Date: 14 April 2024
Orbit: 985 x 1006 km, 99.7° (Epoch: 23 May)

Event Time Altitude Azimuth Distance (km) Brightness Sun altitude
Exits shadow 00:51:37 11° 202° (SSW) 2,706 4.3 -12.0°
Maximum altitude 00:57:02 34° 266° (W) 1,578 3.2 -11.4°
Drops below altitude 10° 01:02:40 10° 330° (NNW) 2,781 5.0 -10.7°
Sets 01:05:26 0° 339° (NNW) 3,738 5.7 -10.4°
